Regional Weather Roundup
Issued by NWS

Home | Current Version | Previous Version | Graphics & Text | Print | Product List | Glossary On
Versions: 1 2 3 4 5 6 7 8 9 10 11 12 13 14 15 16 17 18 19 20 21 22 23 24 25 26 27 28 29 30 31 32 33 34 35 36 37 38 39 40 41 42 43 44 45 46 47 48 49 50
647
ASUS44 KLIX 020210
RWRLA
LOUISIANA WEATHER ROUNDUP
NATIONAL WEATHER SERVICE NEW ORLEANS LA
900 PM CDT WED OCT 01 2014

NOTE: "FAIR" INDICATES FEW OR NO CLOUDS BELOW 12,000 FEET WITH NO
      SIGNIFICANT WEATHER AND/OR OBSTRUCTIONS TO VISIBILITY.
      SKY/WX - SKY CONDITION AND SIGNIFICANT WEATHER.
      TMP - AIR TEMPERATURE.    DP   - DEWPOINT TEMPERATURE.
      RH  - RELATIVE HUMIDITY.  PRES - PRESSURE.
      HX  - HEAT INDEX.         WCI  - WIND CHILL INDEX.

*  THESE STATIONS ARE NOT NWS OR FAA STATIONS AND ARE NOT UNDER
   NWS QUALITY CONTROL.

LAZ040-048-061>063-065-066-069-020300-
SOUTHEAST LOUISIANA

CITY           SKY/WX    TMP DP  RH WIND       PRES   REMARKS
N.O. AUDUBON   NOT AVBL
N.O. INTL ARPT PTCLDY    79  75  87 SE6       29.93R
N.O. LAKEFRONT MOCLDY    80  75  84 SE9       29.94R
N.O. DOWNTOWN* CLOUDY    81  73  78 SE6       29.94R
SLIDELL        PTCLDY    78  74  87 CALM      29.94R
BATON ROUGE    PTCLDY    76  74  93 E5        29.92R
BOOTHVILLE     MOCLDY    78  77  96 E3        29.95R
BELLE CHASSE   MOCLDY    80  74  81 SE9       29.93R
BOGALUSA*      FAIR      78  72  82 SE6       29.97R
GALLIANO*      NOT AVBL
NEW ROADS*     FAIR      77  74  91 SE3       29.91R
GONZALES*      FAIR      77  77 100 CALM      29.92R
HAMMOND*       MOCLDY    79  73  83 SE3       29.95S
HOUMA*         PTCLDY   N/A N/A N/A CALM      29.93R
PORT FOURCHON* CLEAR     81  75  83 SE7       29.97R

$$

LAZ041-044-053-054-020300-
SOUTHWEST LOUISIANA

CITY           SKY/WX    TMP DP  RH WIND       PRES   REMARKS
LAKE CHARLES   PTCLDY    79  77  94 S8        29.88R
LAFAYETTE      CLEAR     78  77  96 CALM      29.90R
PATTERSON      PTCLDY    77  75  94 SE3       29.94R
SALT POINT       N/A     82  78  88 SE6       29.90R
NEW IBERIA     PTCLDY    78  73  84 SE7       29.91
CHENAULT AIRPK PTCLDY    79  75  89 S8        29.88R

$$

LAZ027-028-020300-
CENTRAL LOUISIANA

CITY           SKY/WX    TMP DP  RH WIND       PRES   REMARKS
FORT POLK      CLEAR     77  74  91 SE5       29.87R
ALEXANDRIA INT PTCLDY    77  73  87 SE6       29.86R
ALEXANDRIA     CLEAR     77  73  87 SE3       29.88R

$$

LAZ001-002-020300-
NORTHWEST LOUISIANA

CITY           SKY/WX    TMP DP  RH WIND       PRES   REMARKS
SHREVEPORT     CLEAR     78  72  81 S7        29.84R
BARKSDALE AFB  CLEAR     76  70  83 SE8       29.85R
DTN SHREVEPORT CLEAR     78  70  76 SE8       29.84R

$$

LAZ014-016-020300-
NORTHEAST LOUISIANA

CITY           SKY/WX    TMP DP  RH WIND       PRES   REMARKS
MONROE         PTCLDY    79  72  79 SE3       29.88R
TALLULAH       PTCLDY    80  69  69 SE7       29.89R

$$




USA.gov is the U.S. government's official web portal to all federal, state and local government web resources and services.